Le nostre stazioni meteo in Italia

Pubblicità
Il mio iltempo24.it
Messina, Italia (16420): Temperatura & dewpoint: 03.04.2020 18:00:00 - 09.04.2020 18:00:00 (CEST)Messina, Italia (16420): velocità del vento: 03.04.2020 18:00:00 - 09.04.2020 18:00:00 (CEST)Messina, Italia (16420): direzione del vento: 03.04.2020 18:00:00 - 09.04.2020 18:00:00 (CEST)Messina, Italia (16420): reduced air pressure: 03.04.2020 18:00:00 - 09.04.2020 18:00:00 (CEST)Messina, Italia (16420): visibility: 03.04.2020 18:00:00 - 09.04.2020 18:00:00 (CEST)Messina, Italia (16420): ore di luce: 03.04.2020 18:00:00 - 09.04.2020 18:00:00 (CEST)
Data & Tempo tt [°C] td [°C] ff [km/h] ff [kn] dd ppp [hPa] vv [km] sd [min]
09.04.2020 18:00:00 - - - - - - - -
09.04.2020 17:00:00 18,0 7,4 9 5 NNE 1021,0 20 60
09.04.2020 16:00:00 19,0 1,0 13 7 NE 1021,4 20 60
09.04.2020 15:00:00 17,4 8,3 9 5 NNO 1021,5 20 60
09.04.2020 14:00:00 17,4 8,3 9 5 NNO 1021,5 18 60
09.04.2020 13:00:00 18,4 -0,4 4 2 E 1021,5 20 60
09.04.2020 12:00:00 17,0 11,3 13 7 NE 1022,4 20 60
09.04.2020 11:00:00 16,2 8,4 9 5 NE 1022,4 20 60
09.04.2020 10:00:00 16,0 7,5 8 4 NE 1022,1 20 60
09.04.2020 09:00:00 14,2 9,6 8 4 N 1022,0 20 60
09.04.2020 08:00:00 13,2 10,5 5 3 N 1021,7 20 30
09.04.2020 07:00:00 12,4 9,6 4 2 N 1021,8 20 -
09.04.2020 06:00:00 12,4 7,7 5 3 NNO 1021,8 16 -
09.04.2020 05:00:00 12,6 9,6 8 4 NNO 1021,9 18 -
09.04.2020 04:00:00 12,4 7,7 4 2 NNO 1022,4 18 -
09.04.2020 03:00:00 12,6 8,9 4 2 NNE 1022,4 18 -
09.04.2020 02:00:00 12,8 7,3 5 3 N 1022,7 20 -
09.04.2020 01:00:00 13,0 7,0 4 2 NNE 1022,8 20 -
09.04.2020 00:00:00 13,2 9,3 4 2 N 1022,8 20 -
08.04.2020 23:00:00 13,6 11,3 2 1 NNE 1022,8 20 -
08.04.2020 22:00:00 13,8 11,3 4 2 N 1022,6 20 -
08.04.2020 21:00:00 14,4 11,7 2 1 N 1022,4 20 -
08.04.2020 20:00:00 15,0 11,8 0 0 N 1021,9 20 -
08.04.2020 19:00:00 16,0 11,0 4 2 NO 1021,8 20 48
08.04.2020 18:00:00 17,0 12,3 8 4 NNE 1022,3 20 60
08.04.2020 17:00:00 18,0 2,3 8 4 NO 1022,3 20 60
08.04.2020 16:00:00 18,8 -0,6 8 4 N 1022,4 20 60
08.04.2020 15:00:00 18,6 -0,8 8 4 NO 1022,4 20 60
08.04.2020 14:00:00 18,2 1,2 9 5 NNO 1023,3 20 60
08.04.2020 13:00:00 17,6 2,4 8 4 NNE 1023,5 20 60
08.04.2020 12:00:00 17,0 9,7 9 5 NE 1023,9 20 60
08.04.2020 11:00:00 16,4 11,4 13 7 NE 1024,1 20 60
08.04.2020 10:00:00 15,2 10,8 8 4 NE 1024,1 20 60
08.04.2020 09:00:00 14,2 9,0 8 4 NE 1023,9 20 60
08.04.2020 08:00:00 12,2 7,3 2 1 NE 1024,5 20 30
08.04.2020 07:00:00 10,2 6,9 2 1 NNO 1024,6 20 0
08.04.2020 06:00:00 10,0 6,4 2 1 NNO 1024,6 16 -
08.04.2020 05:00:00 9,8 4,6 2 1 N 1024,7 16 -
08.04.2020 04:00:00 10,2 5,6 2 1 ONO 1024,6 16 -
08.04.2020 03:00:00 10,8 7,5 2 1 SSO 1024,8 16 -
08.04.2020 02:00:00 11,0 8,7 0 0 N 1025,4 16 -
08.04.2020 01:00:00 11,4 9,1 0 0 N 1025,4 16 -
08.04.2020 00:00:00 12,2 9,4 0 0 N 1025,4 16 -
07.04.2020 23:00:00 13,0 9,4 2 1 NNO 1025,4 16 -
07.04.2020 22:00:00 14,0 9,4 2 1 NNO 1025,3 16 -
07.04.2020 21:00:00 14,6 11,0 2 1 NNO 1025,2 16 -
07.04.2020 20:00:00 15,4 10,6 4 2 SE 1024,3 20 -
07.04.2020 19:00:00 15,6 7,1 4 2 SSO 1023,7 20 24
07.04.2020 18:00:00 17,4 5,7 5 3 SSO 1023,6 20 48
07.04.2020 17:00:00 16,4 5,4 5 3 ONO 1023,7 20 18
07.04.2020 16:00:00 17,0 2,6 5 3 NO 1023,7 20 18
07.04.2020 15:00:00 17,8 2,9 8 4 NO 1023,6 20 60
07.04.2020 14:00:00 17,8 4,7 9 5 NO 1023,7 20 60
07.04.2020 13:00:00 17,6 4,6 9 5 NNO 1023,9 20 60
07.04.2020 12:00:00 16,8 6,9 8 4 NO 1023,8 18 60
07.04.2020 11:00:00 15,8 7,3 8 4 NO 1023,9 18 60
07.04.2020 10:00:00 14,2 10,0 5 3 ONO 1023,8 16 0
07.04.2020 09:00:00 14,8 10,8 4 2 NO 1023,7 16 30
07.04.2020 08:00:00 13,6 10,4 5 3 NE 1023,6 18 6
07.04.2020 07:00:00 13,0 10,2 4 2 N 1023,5 18 0
07.04.2020 06:00:00 12,8 10,7 4 2 NNO 1023,6 15 -
07.04.2020 05:00:00 13,0 10,7 0 0 N 1023,6 12 -
07.04.2020 04:00:00 13,0 10,7 0 0 N 1023,7 12 -
07.04.2020 03:00:00 13,0 10,5 2 1 OSO 1023,8 12 -
07.04.2020 02:00:00 13,0 10,9 0 0 N 1023,6 10 -
07.04.2020 01:00:00 13,0 10,9 4 2 N 1023,6 12 -
07.04.2020 00:00:00 13,0 10,5 2 1 N 1023,6 14 -
06.04.2020 23:00:00 13,4 10,9 0 0 N 1023,6 12 -
06.04.2020 22:00:00 13,2 10,7 0 0 N 1023,5 12 -
06.04.2020 21:00:00 14,0 11,7 0 0 N 1022,9 14 -
06.04.2020 20:00:00 14,2 11,5 0 0 N 1022,5 14 -
06.04.2020 19:00:00 14,2 10,8 2 1 SSE 1022,3 16 0
06.04.2020 18:00:00 14,8 11,6 2 1 SSO 1022,3 16 0
06.04.2020 17:00:00 14,8 10,2 4 2 SE 1022,2 16 0
06.04.2020 16:00:00 14,4 9,6 2 1 SSO 1022,2 14 0
06.04.2020 15:00:00 14,6 11,4 4 2 S 1022,1 16 0
06.04.2020 14:00:00 15,2 11,0 5 3 S 1021,9 16 0
06.04.2020 13:00:00 15,8 10,1 9 5 ENE 1021,5 16 0
06.04.2020 12:00:00 16,2 11,2 5 3 NE 1021,5 16 0
06.04.2020 11:00:00 15,8 11,2 5 3 NE 1020,9 20 0
06.04.2020 10:00:00 13,8 9,8 2 1 NNE 1020,5 20 0
06.04.2020 09:00:00 12,8 8,7 2 1 NNE 1020,5 16 0
06.04.2020 08:00:00 12,6 9,2 0 0 N 1019,4 14 0
06.04.2020 07:00:00 12,6 9,2 0 0 N 1018,6 10 0
06.04.2020 06:00:00 12,4 8,5 4 2 ONO 1018,4 10 -
06.04.2020 05:00:00 12,2 10,1 5 3 NNE 1018,3 4,0 -
06.04.2020 04:00:00 13,0 10,9 4 2 NNO 1018,2 9 -
06.04.2020 03:00:00 13,4 9,1 11 6 ONO 1017,8 12 -
06.04.2020 02:00:00 13,6 8,2 9 5 ONO 1017,8 12 -
06.04.2020 01:00:00 13,6 9,1 9 5 ONO 1017,8 12 -
06.04.2020 00:00:00 13,8 9,2 5 3 NO 1017,7 12 -
05.04.2020 23:00:00 13,8 10,2 9 5 ONO 1017,6 12 -
05.04.2020 22:00:00 14,0 8,6 8 4 NO 1017,3 12 -
05.04.2020 21:00:00 14,0 8,6 5 3 NO 1016,7 12 -
05.04.2020 20:00:00 14,0 7,8 8 4 NO 1016,1 12 -
05.04.2020 19:00:00 14,4 7,5 5 3 N 1015,5 12 0
05.04.2020 18:00:00 15,2 6,2 8 4 NNO 1015,5 12 0
05.04.2020 17:00:00 16,4 7,1 9 5 NNO 1015,1 14 60
05.04.2020 16:00:00 16,2 7,2 5 3 N 1014,9 18 60
05.04.2020 15:00:00 16,0 6,2 9 5 N 1014,9 18 42
05.04.2020 14:00:00 16,2 7,2 11 6 N 1015,1 18 60
05.04.2020 13:00:00 16,2 7,2 9 5 NNO 1015,1 18 60
05.04.2020 12:00:00 16,2 6,6 11 6 NO 1014,9 18 60
05.04.2020 11:00:00 15,4 6,9 13 7 NNO 1014,7 18 60
05.04.2020 10:00:00 15,0 7,5 11 6 NNO 1014,5 18 60
05.04.2020 09:00:00 14,4 7,9 9 5 N 1014,2 18 60
05.04.2020 08:00:00 13,2 6,8 9 5 NNO 1014,1 16 6
05.04.2020 07:00:00 13,0 6,4 8 4 NNO 1013,7 16 -
05.04.2020 06:00:00 13,0 6,4 8 4 NO 1012,8 16 -
05.04.2020 05:00:00 12,8 7,7 8 4 NO 1013,9 16 -
05.04.2020 04:00:00 12,8 8,3 8 4 NNO 1013,9 16 -
05.04.2020 03:00:00 13,0 9,6 5 3 NO 1013,9 16 -
05.04.2020 02:00:00 13,2 9,8 11 6 NO 1014,0 16 -
05.04.2020 01:00:00 13,0 9,4 15 8 ONO 1014,0 16 -
05.04.2020 00:00:00 13,0 9,4 11 6 ONO 1014,0 20 -
04.04.2020 23:00:00 13,0 9,4 15 8 NO 1014,2 20 -
04.04.2020 22:00:00 12,6 7,9 15 8 ONO 1014,6 20 -
04.04.2020 21:00:00 12,4 7,5 15 8 ONO 1013,2 20 -
04.04.2020 20:00:00 12,4 7,5 15 8 ONO 1012,6 20 -
04.04.2020 19:00:00 12,8 7,0 9 5 ONO 1012,5 20 12
04.04.2020 18:00:00 13,6 6,2 11 6 NO 1012,3 20 60
04.04.2020 17:00:00 14,8 6,1 13 7 ONO 1011,6 20 60
04.04.2020 16:00:00 14,8 5,9 15 8 NNO 1011,5 20 60
04.04.2020 15:00:00 14,4 6,7 13 7 N 1011,5 20 60
04.04.2020 14:00:00 14,8 5,9 22 12 ONO 1011,5 20 60
04.04.2020 13:00:00 14,6 5,9 8 4 N 1011,7 20 36
04.04.2020 12:00:00 14,0 6,8 9 5 N 1011,7 20 60
04.04.2020 11:00:00 14,0 7,1 9 5 NNE 1011,5 20 60
04.04.2020 10:00:00 13,2 6,8 9 5 NNO 1010,7 20 60
04.04.2020 09:00:00 12,8 7,7 8 4 NNO 1010,5 20 36
04.04.2020 08:00:00 11,4 8,1 5 3 NNO 1010,3 20 6
04.04.2020 07:00:00 11,0 7,7 5 3 NO 1009,6 20 -
04.04.2020 06:00:00 11,2 7,9 5 3 NNO 1009,5 12 -
04.04.2020 05:00:00 11,0 8,4 5 3 NNE 1009,5 12 -
04.04.2020 04:00:00 11,0 8,6 8 4 NO 1009,5 12 -
04.04.2020 03:00:00 11,0 8,6 5 3 NO 1009,5 12 -
04.04.2020 02:00:00 11,0 6,9 9 5 NO 1009,5 12 -
04.04.2020 01:00:00 11,4 7,3 5 3 NO 1009,5 12 -
04.04.2020 00:00:00 11,6 7,1 9 5 NO 1009,3 12 -
03.04.2020 23:00:00 11,6 7,3 9 5 E 1008,9 12 -
03.04.2020 22:00:00 11,6 7,5 4 2 NNE 1008,7 12 -
03.04.2020 21:00:00 11,6 7,5 5 3 N 1008,5 12 -
03.04.2020 20:00:00 11,6 9,3 5 3 NNE 1008,4 16 -
03.04.2020 19:00:00 12,0 8,5 8 4 NNE 1008,4 14 0
03.04.2020 18:00:00 12,0 8,1 2 1 NNE 1008,4 14 0

tt = Temperatura
td = dewpoint
ff = velocità del vento
dd = direzione del vento
ppp = reduced air pressure
vv = visibility
sd = ore di luce

Stazioni seguenti

WeatherPro
AMSI
MeteoEarth